Time,TemperatureF,DewpointF,PressureIn,WindDirection,WindDirectionDegrees,WindSpeedMPH,WindSpeedGustMPH,Humidity,HourlyPrecipIn,Conditions,Clouds,dailyrainin,SoftwareType,DateUTC
2013-02-05 00:03:00,29.0,-99.9,29.96,South,189,4.0,4.0,-999,-99.99,,,-99.99,,2013-02-05 05:03:00,
2013-02-05 00:12:00,-999.0,-99.9,29.96,SSW,211,4.0,8.0,-999,-99.99,,,-99.99,,2013-02-05 05:12:00,
2013-02-05 00:22:00,-999.0,-99.9,29.95,SSW,197,6.0,11.0,-999,-99.99,,,-99.99,,2013-02-05 05:22:00,
2013-02-05 00:32:00,28.0,-99.9,29.95,SSW,199,5.0,7.0,-999,-99.99,,,-99.99,,2013-02-05 05:32:00,
2013-02-05 00:42:00,-999.0,-99.9,29.95,SSW,203,4.0,7.0,-999,-99.99,,,-99.99,,2013-02-05 05:42:00,
2013-02-05 00:52:00,-999.0,-99.9,29.94,SSW,207,3.0,6.0,-999,-99.99,,,-99.99,,2013-02-05 05:52:00,
2013-02-05 01:02:00,28.0,-99.9,29.94,SSW,194,3.0,5.0,-999,-99.99,,,-99.99,,2013-02-05 06:02:00,
2013-02-05 01:11:00,-999.0,-99.9,29.94,South,184,5.0,9.0,-999,-99.99,,,-99.99,,2013-02-05 06:11:00,
2013-02-05 01:22:00,-999.0,-99.9,29.93,SSW,202,2.0,4.0,-999,-99.99,,,-99.99,,2013-02-05 06:22:00,
2013-02-05 01:32:00,27.0,-99.9,29.93,South,190,5.0,7.0,-999,-99.99,,,-99.99,,2013-02-05 06:32:00,
2013-02-05 01:42:00,-999.0,-99.9,29.93,South,178,1.0,3.0,-999,-99.99,,,-99.99,,2013-02-05 06:42:00,
2013-02-05 01:52:00,-999.0,-99.9,29.93,South,182,2.0,4.0,-999,-99.99,,,-99.99,,2013-02-05 06:52:00,
2013-02-05 02:01:00,28.0,-99.9,29.94,South,170,3.0,4.0,-999,-99.99,,,-99.99,,2013-02-05 07:01:00,
2013-02-05 02:12:00,-999.0,-99.9,29.93,SSE,162,4.0,5.0,-999,-99.99,,,-99.99,,2013-02-05 07:12:00,
2013-02-05 02:22:00,-999.0,-99.9,29.93,South,190,3.0,5.0,-999,-99.99,,,-99.99,,2013-02-05 07:22:00,
2013-02-05 02:32:00,28.0,-99.9,29.93,South,186,2.0,3.0,-999,-99.99,,,-99.99,,2013-02-05 07:32:00,
2013-02-05 02:42:00,-999.0,-99.9,29.93,SSE,162,3.0,4.0,-999,-99.99,,,-99.99,,2013-02-05 07:42:00,
2013-02-05 02:52:00,-999.0,-99.9,29.93,SSE,166,2.0,3.0,-999,-99.99,,,-99.99,,2013-02-05 07:52:00,
2013-02-05 03:01:00,28.0,-99.9,29.92,SSE,150,1.0,2.0,-999,-99.99,,,-99.99,,2013-02-05 08:01:00,
2013-02-05 03:22:00,-999.0,-99.9,29.92,SE,143,1.0,1.0,-999,-99.99,,,-99.99,,2013-02-05 08:22:00,
2013-02-05 03:32:00,28.0,-99.9,29.92,SE,142,0.0,2.0,-999,-99.99,,,-99.99,,2013-02-05 08:32:00,
2013-02-05 03:42:00,-999.0,-99.9,29.92,SSE,159,2.0,4.0,-999,-99.99,,,-99.99,,2013-02-05 08:42:00,
2013-02-05 03:52:00,-999.0,-99.9,29.92,South,183,2.0,3.0,-999,-99.99,,,-99.99,,2013-02-05 08:52:00,
2013-02-05 04:02:00,28.0,-99.9,29.92,SSE,163,-999.0,0.0,-999,-99.99,,,-99.99,,2013-02-05 09:02:00,
2013-02-05 04:22:00,-999.0,-99.9,29.91,ESE,120,3.0,4.0,-999,-99.99,,,-99.99,,2013-02-05 09:22:00,
2013-02-05 04:32:00,28.0,-99.9,29.90,ESE,112,2.0,3.0,-999,-99.99,,,-99.99,,2013-02-05 09:32:00,
2013-02-05 04:42:00,-999.0,-99.9,29.90,SE,146,2.0,4.0,-999,-99.99,,,-99.99,,2013-02-05 09:42:00,
2013-02-05 04:52:00,-999.0,-99.9,29.90,ESE,119,1.0,1.0,-999,-99.99,,,-99.99,,2013-02-05 09:52:00,
2013-02-05 05:02:00,28.0,-99.9,29.90,ESE,118,1.0,1.0,-999,-99.99,,,-99.99,,2013-02-05 10:02:00,
2013-02-05 05:11:00,-999.0,-99.9,29.90,East,87,0.0,1.0,-999,-99.99,,,-99.99,,2013-02-05 10:11:00,
2013-02-05 05:22:00,-999.0,-99.9,29.90,East,99,0.0,1.0,-999,-99.99,,,-99.99,,2013-02-05 10:22:00,
2013-02-05 05:32:00,29.0,-99.9,29.90,East,99,0.0,1.0,-999,-99.99,,,-99.99,,2013-02-05 10:32:00,
2013-02-05 05:42:00,-999.0,-99.9,29.90,East,93,1.0,2.0,-999,-99.99,,,-99.99,,2013-02-05 10:42:00,
2013-02-05 05:52:00,-999.0,-99.9,29.91,North,4,3.0,4.0,-999,-99.99,,,-99.99,,2013-02-05 10:52:00,
2013-02-05 06:02:00,29.0,-99.9,29.90,North,359,4.0,4.0,-999,-99.99,,,-99.99,,2013-02-05 11:02:00,
2013-02-05 06:11:00,-999.0,-99.9,29.91,North,7,1.0,2.0,-999,-99.99,,,-99.99,,2013-02-05 11:11:00,
2013-02-05 06:22:00,29.0,-99.9,29.91,NNE,14,3.0,3.0,-999,-99.99,,,-99.99,,2013-02-05 11:22:00,
2013-02-05 06:32:00,-999.0,-99.9,29.91,ENE,72,1.0,3.0,-999,-99.99,,,-99.99,,2013-02-05 11:32:00,
2013-02-05 06:42:00,-999.0,-99.9,29.91,NNE,12,3.0,5.0,-999,-99.99,,,-99.99,,2013-02-05 11:42:00,
2013-02-05 06:53:00,-999.0,-99.9,29.91,North,11,3.0,4.0,-999,-99.99,,,-99.99,,2013-02-05 11:53:00,
2013-02-05 07:02:00,29.0,-99.9,29.91,NNE,15,4.0,4.0,-999,-99.99,,,-99.99,,2013-02-05 12:02:00,
2013-02-05 07:12:00,-999.0,-99.9,29.91,North,8,8.0,10.0,-999,-99.99,,,-99.99,,2013-02-05 12:12:00,
2013-02-05 07:22:00,-999.0,-99.9,29.92,NNE,28,9.0,11.0,-999,-99.99,,,-99.99,,2013-02-05 12:22:00,
2013-02-05 07:32:00,28.0,-99.9,29.92,NNE,20,9.0,11.0,-999,-99.99,,,-99.99,,2013-02-05 12:32:00,
2013-02-05 07:42:00,-999.0,-99.9,29.93,NNE,19,8.0,10.0,-999,-99.99,,,-99.99,,2013-02-05 12:42:00,
2013-02-05 07:52:00,28.0,-99.9,29.93,NNE,20,7.0,9.0,-999,-99.99,,,-99.99,,2013-02-05 12:52:00,
2013-02-05 08:02:00,-999.0,-99.9,29.93,NNE,18,9.0,11.0,-999,-99.99,,,-99.99,,2013-02-05 13:02:00,
2013-02-05 08:12:00,-999.0,-99.9,29.93,NNE,17,8.0,10.0,-999,-99.99,,,-99.99,,2013-02-05 13:12:00,
2013-02-05 08:22:00,-999.0,-99.9,29.93,NNE,23,9.0,10.0,-999,-99.99,,,-99.99,,2013-02-05 13:22:00,
2013-02-05 08:32:00,28.0,-99.9,29.94,North,6,10.0,11.0,-999,-99.99,,,-99.99,,2013-02-05 13:32:00,
2013-02-05 08:42:00,-999.0,-99.9,29.94,NNE,14,10.0,13.0,-999,-99.99,,,-99.99,,2013-02-05 13:42:00,
2013-02-05 08:52:00,-999.0,-99.9,29.94,NNE,23,9.0,10.0,-999,-99.99,,,-99.99,,2013-02-05 13:52:00,
2013-02-05 09:01:00,28.0,-99.9,29.94,NNE,19,9.0,10.0,-999,-99.99,,,-99.99,,2013-02-05 14:01:00,
2013-02-05 09:12:00,-999.0,-99.9,29.94,NNE,23,6.0,9.0,-999,-99.99,,,-99.99,,2013-02-05 14:12:00,
2013-02-05 09:22:00,-999.0,-99.9,29.95,North,7,9.0,10.0,-999,-99.99,,,-99.99,,2013-02-05 14:22:00,
2013-02-05 09:32:00,-999.0,-99.9,29.95,NNE,18,9.0,11.0,-999,-99.99,,,-99.99,,2013-02-05 14:32:00,
2013-02-05 09:42:00,-999.0,-99.9,29.94,NNE,12,9.0,11.0,-999,-99.99,,,-99.99,,2013-02-05 14:42:00,
2013-02-05 09:52:00,-999.0,-99.9,29.94,NNE,23,8.0,9.0,-999,-99.99,,,-99.99,,2013-02-05 14:52:00,
2013-02-05 10:02:00,28.0,-99.9,29.94,NNE,21,8.0,10.0,-999,-99.99,,,-99.99,,2013-02-05 15:02:00,
2013-02-05 10:11:00,-999.0,-99.9,29.95,North,10,10.0,11.0,-999,-99.99,,,-99.99,,2013-02-05 15:11:00,
2013-02-05 10:22:00,-999.0,-99.9,29.95,NNE,16,9.0,11.0,-999,-99.99,,,-99.99,,2013-02-05 15:22:00,
2013-02-05 10:32:00,29.0,-99.9,29.95,North,10,10.0,13.0,-999,-99.99,,,-99.99,,2013-02-05 15:32:00,
2013-02-05 10:42:00,-999.0,-99.9,29.96,NNE,19,8.0,10.0,-999,-99.99,,,-99.99,,2013-02-05 15:42:00,
2013-02-05 10:52:00,-999.0,-99.9,29.96,North,6,10.0,11.0,-999,-99.99,,,-99.99,,2013-02-05 15:52:00,
2013-02-05 11:02:00,-999.0,-99.9,29.96,North,4,9.0,11.0,-999,-99.99,,,-99.99,,2013-02-05 16:02:00,
2013-02-05 11:12:00,-999.0,-99.9,29.96,North,6,10.0,12.0,-999,-99.99,,,-99.99,,2013-02-05 16:12:00,
2013-02-05 11:22:00,-999.0,-99.9,29.96,NNE,22,8.0,10.0,-999,-99.99,,,-99.99,,2013-02-05 16:22:00,
2013-02-05 11:33:00,29.0,-99.9,29.96,NNE,21,8.0,9.0,-999,-99.99,,,-99.99,,2013-02-05 16:33:00,
2013-02-05 11:42:00,-999.0,-99.9,29.95,NNE,13,9.0,11.0,-999,-99.99,,,-99.99,,2013-02-05 16:42:00,
2013-02-05 11:52:00,29.0,-99.9,29.95,NNE,20,9.0,11.0,-999,-99.99,,,-99.99,,2013-02-05 16:52:00,
2013-02-05 12:01:00,-999.0,-99.9,29.94,North,8,10.0,13.0,-999,-99.99,,,-99.99,,2013-02-05 17:01:00,
2013-02-05 12:12:00,-999.0,-99.9,29.94,North,7,9.0,11.0,-999,-99.99,,,-99.99,,2013-02-05 17:12:00,
2013-02-05 12:22:00,-999.0,-99.9,29.94,North,9,8.0,9.0,-999,-99.99,,,-99.99,,2013-02-05 17:22:00,
2013-02-05 12:33:00,30.0,-99.9,29.94,NNE,18,7.0,9.0,-999,-99.99,,,-99.99,,2013-02-05 17:33:00,
2013-02-05 12:42:00,-999.0,-99.9,29.94,NNE,13,7.0,9.0,-999,-99.99,,,-99.99,,2013-02-05 17:42:00,
2013-02-05 12:52:00,-999.0,-99.9,29.93,North,5,8.0,9.0,-999,-99.99,,,-99.99,,2013-02-05 17:52:00,
2013-02-05 13:02:00,30.0,-99.9,29.93,North,5,7.0,8.0,-999,-99.99,,,-99.99,,2013-02-05 18:02:00,
2013-02-05 13:12:00,-999.0,-99.9,29.93,North,10,8.0,10.0,-999,-99.99,,,-99.99,,2013-02-05 18:12:00,
2013-02-05 13:22:00,-999.0,-99.9,29.93,NE,56,5.0,6.0,-999,-99.99,,,-99.99,,2013-02-05 18:22:00,
2013-02-05 13:32:00,31.0,-99.9,29.93,East,79,4.0,6.0,-999,-99.99,,,-99.99,,2013-02-05 18:32:00,
2013-02-05 13:42:00,-999.0,-99.9,29.93,East,92,3.0,4.0,-999,-99.99,,,-99.99,,2013-02-05 18:42:00,
2013-02-05 13:52:00,-999.0,-99.9,29.92,ENE,63,4.0,6.0,-999,-99.99,,,-99.99,,2013-02-05 18:52:00,
2013-02-05 14:02:00,31.0,-99.9,29.92,ENE,68,3.0,4.0,-999,-99.99,,,-99.99,,2013-02-05 19:02:00,
2013-02-05 14:11:00,-999.0,-99.9,29.91,East,80,3.0,5.0,-999,-99.99,,,-99.99,,2013-02-05 19:11:00,
2013-02-05 14:22:00,-999.0,-99.9,29.90,ENE,64,3.0,7.0,-999,-99.99,,,-99.99,,2013-02-05 19:22:00,
2013-02-05 14:32:00,31.0,-99.9,29.90,ENE,73,3.0,7.0,-999,-99.99,,,-99.99,,2013-02-05 19:32:00,
2013-02-05 14:42:00,-999.0,-99.9,29.90,ENE,74,4.0,5.0,-999,-99.99,,,-99.99,,2013-02-05 19:42:00,
2013-02-05 14:52:00,-999.0,-99.9,29.89,ENE,69,4.0,7.0,-999,-99.99,,,-99.99,,2013-02-05 19:52:00,
2013-02-05 15:02:00,-999.0,-99.9,29.89,ENE,73,3.0,4.0,-999,-99.99,,,-99.99,,2013-02-05 20:02:00,
2013-02-05 15:11:00,-999.0,-99.9,29.89,NE,45,5.0,6.0,-999,-99.99,,,-99.99,,2013-02-05 20:11:00,
2013-02-05 15:22:00,-999.0,-99.9,29.90,East,80,2.0,4.0,-999,-99.99,,,-99.99,,2013-02-05 20:22:00,
2013-02-05 15:32:00,31.0,-99.9,29.90,East,82,2.0,4.0,-999,-99.99,,,-99.99,,2013-02-05 20:32:00,
2013-02-05 15:42:00,-999.0,-99.9,29.91,NE,53,4.0,5.0,-999,-99.99,,,-99.99,,2013-02-05 20:42:00,
2013-02-05 15:52:00,-999.0,-99.9,29.90,East,83,2.0,3.0,-999,-99.99,,,-99.99,,2013-02-05 20:52:00,
2013-02-05 16:02:00,-999.0,-99.9,29.91,ENE,63,2.0,4.0,-999,-99.99,,,-99.99,,2013-02-05 21:02:00,
2013-02-05 16:11:00,-999.0,-99.9,29.90,East,84,1.0,2.0,-999,-99.99,,,-99.99,,2013-02-05 21:11:00,
2013-02-05 16:22:00,-999.0,-99.9,29.89,NE,51,3.0,4.0,-999,-99.99,,,-99.99,,2013-02-05 21:22:00,
2013-02-05 16:32:00,32.0,-99.9,29.90,ENE,62,3.0,5.0,-999,-99.99,,,-99.99,,2013-02-05 21:32:00,
2013-02-05 16:42:00,-999.0,-99.9,29.90,ENE,69,2.0,4.0,-999,-99.99,,,-99.99,,2013-02-05 21:42:00,
2013-02-05 16:52:00,-999.0,-99.9,29.90,East,82,2.0,3.0,-999,-99.99,,,-99.99,,2013-02-05 21:52:00,
2013-02-05 17:02:00,32.0,-99.9,29.90,ENE,76,3.0,4.0,-999,-99.99,,,-99.99,,2013-02-05 22:02:00,
2013-02-05 17:12:00,-999.0,-99.9,29.89,NE,56,4.0,6.0,-999,-99.99,,,-99.99,,2013-02-05 22:12:00,
2013-02-05 17:22:00,-999.0,-99.9,29.90,East,91,3.0,5.0,-999,-99.99,,,-99.99,,2013-02-05 22:22:00,
2013-02-05 17:32:00,-999.0,-99.9,29.89,ENE,61,3.0,5.0,-999,-99.99,,,-99.99,,2013-02-05 22:32:00,
2013-02-05 17:42:00,-999.0,-99.9,29.89,ENE,77,3.0,5.0,-999,-99.99,,,-99.99,,2013-02-05 22:42:00,
2013-02-05 17:52:00,-999.0,-99.9,29.88,ENE,68,2.0,4.0,-999,-99.99,,,-99.99,,2013-02-05 22:52:00,
2013-02-05 18:02:00,-999.0,-99.9,29.88,ENE,64,3.0,5.0,-999,-99.99,,,-99.99,,2013-02-05 23:02:00,
2013-02-05 18:12:00,32.0,-99.9,29.88,ENE,62,4.0,6.0,-999,-99.99,,,-99.99,,2013-02-05 23:12:00,
2013-02-05 18:22:00,-999.0,-99.9,29.88,East,100,3.0,4.0,-999,-99.99,,,-99.99,,2013-02-05 23:22:00,
2013-02-05 18:33:00,32.0,-99.9,29.89,ENE,78,3.0,4.0,-999,-99.99,,,-99.99,,2013-02-05 23:33:00,
2013-02-05 18:42:00,32.0,-99.9,29.89,ENE,63,4.0,6.0,-999,-99.99,,,-99.99,,2013-02-05 23:42:00,
2013-02-05 18:53:00,32.0,-99.9,29.89,ENE,57,4.0,6.0,-999,-99.99,,,-99.99,,2013-02-05 23:53:00,
2013-02-05 19:02:00,32.0,-99.9,29.89,ENE,58,5.0,7.0,-999,-99.99,,,-99.99,,2013-02-06 00:02:00,
2013-02-05 19:12:00,33.0,-99.9,29.89,NE,45,3.0,4.0,-999,-99.99,,,-99.99,,2013-02-06 00:12:00,
2013-02-05 19:22:00,32.0,-99.9,29.90,ENE,65,2.0,4.0,-999,-99.99,,,-99.99,,2013-02-06 00:22:00,
2013-02-05 19:32:00,32.0,-99.9,29.90,NNE,30,4.0,5.0,-999,-99.99,,,-99.99,,2013-02-06 00:32:00,
2013-02-05 19:43:00,32.0,-99.9,29.89,NNE,16,3.0,4.0,-999,-99.99,,,-99.99,,2013-02-06 00:43:00,
2013-02-05 19:52:00,32.0,-99.9,29.89,NNE,13,3.0,3.0,-999,-99.99,,,-99.99,,2013-02-06 00:52:00,
2013-02-05 20:02:00,32.0,-99.9,29.90,North,5,3.0,4.0,-999,-99.99,,,-99.99,,2013-02-06 01:02:00,
2013-02-05 20:12:00,-999.0,-99.9,29.90,NNE,16,4.0,5.0,-999,-99.99,,,-99.99,,2013-02-06 01:12:00,
2013-02-05 20:22:00,-999.0,-99.9,29.89,NE,45,4.0,5.0,-999,-99.99,,,-99.99,,2013-02-06 01:22:00,
2013-02-05 20:33:00,-999.0,-99.9,29.89,ENE,60,2.0,4.0,-999,-99.99,,,-99.99,,2013-02-06 01:33:00,
2013-02-05 20:42:00,-999.0,-99.9,29.89,NE,50,4.0,5.0,-999,-99.99,,,-99.99,,2013-02-06 01:42:00,
2013-02-05 20:53:00,-999.0,-99.9,29.89,North,8,4.0,5.0,-999,-99.99,,,-99.99,,2013-02-06 01:53:00,
2013-02-05 21:02:00,31.0,-99.9,29.89,North,7,4.0,5.0,-999,-99.99,,,-99.99,,2013-02-06 02:02:00,
2013-02-05 21:12:00,-999.0,-99.9,29.89,North,4,4.0,4.0,-999,-99.99,,,-99.99,,2013-02-06 02:12:00,
2013-02-05 21:22:00,-999.0,-99.9,29.90,North,356,2.0,3.0,-999,-99.99,,,-99.99,,2013-02-06 02:22:00,
2013-02-05 21:32:00,31.0,-99.9,29.90,North,358,2.0,3.0,-999,-99.99,,,-99.99,,2013-02-06 02:32:00,
2013-02-05 21:43:00,-999.0,-99.9,29.90,North,1,3.0,4.0,-999,-99.99,,,-99.99,,2013-02-06 02:43:00,
2013-02-05 21:53:00,-999.0,-99.9,29.90,North,2,2.0,3.0,-999,-99.99,,,-99.99,,2013-02-06 02:53:00,
2013-02-05 22:03:00,31.0,-99.9,29.90,North,358,3.0,3.0,-999,-99.99,,,-99.99,,2013-02-06 03:03:00,
2013-02-05 22:12:00,-999.0,-99.9,29.90,NNE,14,3.0,4.0,-999,-99.99,,,-99.99,,2013-02-06 03:12:00,
2013-02-05 22:22:00,-999.0,-99.9,29.90,North,7,4.0,5.0,-999,-99.99,,,-99.99,,2013-02-06 03:22:00,
2013-02-05 22:33:00,32.0,-99.9,29.90,North,3,3.0,4.0,-999,-99.99,,,-99.99,,2013-02-06 03:33:00,
2013-02-05 22:43:00,-999.0,-99.9,29.91,North,8,3.0,4.0,-999,-99.99,,,-99.99,,2013-02-06 03:43:00,
2013-02-05 22:53:00,-999.0,-99.9,29.91,North,10,3.0,4.0,-999,-99.99,,,-99.99,,2013-02-06 03:53:00,
2013-02-05 23:02:00,32.0,-99.9,29.91,NNE,12,4.0,5.0,-999,-99.99,,,-99.99,,2013-02-06 04:02:00,
2013-02-05 23:12:00,-999.0,-99.9,29.90,North,6,3.0,4.0,-999,-99.99,,,-99.99,,2013-02-06 04:12:00,
2013-02-05 23:22:00,-999.0,-99.9,29.91,North,6,4.0,4.0,-999,-99.99,,,-99.99,,2013-02-06 04:22:00,
2013-02-05 23:32:00,32.0,-99.9,29.91,North,4,3.0,4.0,-999,-99.99,,,-99.99,,2013-02-06 04:32:00,
2013-02-05 23:42:00,-999.0,-99.9,29.91,North,7,3.0,4.0,-999,-99.99,,,-99.99,,2013-02-06 04:42:00,
2013-02-05 23:52:00,-999.0,-99.9,29.91,NNE,12,3.0,4.0,-999,-99.99,,,-99.99,,2013-02-06 04:52:00,